time_stamp(utc),avg(mph),gust(mph),direction(deg),12m_air_temp(f),sonic_u(cm/s),sonic_v(cm/s),sonic_w(cm/s),pressure,2m_air_temp(f),pyranometer(W/m^2)
"2019-12-26 00:03:34+00",4.4,5.4,,41.8,-179,58,8,1021.7,38.5,0
"2019-12-26 00:08:34+00",4.0,4.0,,41.5,-156,71,5,1021.69,38.3,0
"2019-12-26 00:13:34+00",3.5,3.5,,41.2,-139,57,7,1021.69,38.2,0
"2019-12-26 00:18:34+00",4.2,4.2,,40.9,-146,103,10,1021.74,38,0
"2019-12-26 00:23:34+00",4.2,4.2,,40.9,-154,94,8,1021.83,37.9,0
"2019-12-26 00:28:34+00",4.2,5.2,,40.8,-151,96,5,1021.91,37.8,0
"2019-12-26 00:33:34+00",3.8,3.8,,40.7,-137,84,2,1021.82,37.7,0
"2019-12-26 00:38:34+00",3.4,3.4,,40.8,-133,51,0,1021.96,37.6,0
"2019-12-26 00:43:34+00",3.7,3.7,,40.7,-130,81,0,1021.93,37.5,0
"2019-12-26 00:48:34+00",3.6,3.6,,40.6,-116,95,5,1022.01,37.5,0
"2019-12-26 00:53:34+00",3.1,3.1,,40.5,-102,76,1,1021.94,37.4,0
"2019-12-26 00:58:34+00",3.0,3.0,,40.3,-103,70,5,1021.91,37.3,0
"2019-12-26 01:03:34+00",2.5,2.5,,40.3,-95,33,0,1021.82,37.1,0
"2019-12-26 01:08:34+00",2.2,2.2,,40.3,-77,45,3,1021.95,36.9,0
"2019-12-26 01:13:34+00",2.2,2.2,,40.2,-77,36,2,1021.83,36.8,0
"2019-12-26 01:18:34+00",1.6,1.6,,40.1,-63,0,2,1021.79,36.5,0
"2019-12-26 01:23:34+00",1.7,1.7,,40.1,-57,-20,0,1021.66,36.4,0
"2019-12-26 01:28:34+00",2.2,2.2,,40.2,-82,-45,0,1021.64,36.1,0
"2019-12-26 01:33:34+00",2.9,2.9,,40.5,-103,-62,-2,1021.59,36.1,0
"2019-12-26 01:38:34+00",3.3,4.3,,40.7,-123,-72,-1,1021.57,36.2,0
"2019-12-26 01:43:34+00",2.9,2.9,,40.7,-94,-68,1,1021.41,36.4,0
"2019-12-26 01:48:34+00",2.7,2.7,,40.6,-85,-67,0,1021.44,36.2,0
"2019-12-26 01:53:34+00",2.7,2.7,,40.5,-87,-64,0,1021.51,36.2,0
"2019-12-26 01:58:34+00",2.4,2.4,,40.6,-101,-42,-2,1021.55,36.4,0
"2019-12-26 02:03:34+00",2.4,2.4,,40.5,-100,-49,-1,1021.68,36.6,0
"2019-12-26 02:08:34+00",3.2,3.2,,40.5,-117,-34,-2,1021.68,36.6,0
"2019-12-26 02:13:34+00",2.8,2.8,,40.3,-113,-13,1,1021.74,36.5,0
"2019-12-26 02:18:34+00",2.6,2.6,,39.7,-107,15,-2,1021.81,36.3,0
"2019-12-26 02:23:34+00",3.4,3.4,,40,-144,-11,-1,1021.8,36,0
"2019-12-26 02:28:34+00",3.0,3.0,,39.9,-123,27,3,1021.73,35.8,0
"2019-12-26 02:33:34+00",3.2,3.2,,38.8,-132,27,5,1021.76,35.7,0
"2019-12-26 02:38:34+00",3.0,3.0,,39.1,-115,50,2,1021.77,35.7,0
"2019-12-26 02:43:34+00",3.1,3.1,,39.3,-121,41,2,1021.76,35.6,0
"2019-12-26 02:48:34+00",3.5,3.5,,39.5,-126,75,5,1021.82,35.4,0
"2019-12-26 02:53:34+00",3.9,3.9,,39.6,-132,104,8,1021.77,35.2,0
"2019-12-26 02:58:34+00",3.1,3.1,,39.9,-114,64,-1,1021.77,34.9,0
"2019-12-26 03:03:34+00",3.0,3.0,,40.3,-109,65,-1,1021.8,34.8,0
"2019-12-26 03:08:34+00",4.6,4.6,,39.4,-126,147,8,1021.97,34.7,0
"2019-12-26 03:13:34+00",4.4,4.4,,37.7,-126,135,3,1021.9,34.8,0
"2019-12-26 03:18:34+00",3.1,3.1,,37.4,-105,71,0,1021.81,34.8,0
"2019-12-26 03:23:34+00",3.2,3.2,,37.2,-125,50,0,1021.79,34.8,0
"2019-12-26 03:28:34+00",3.2,3.2,,36.9,-129,28,1,1021.77,34.7,0
"2019-12-26 03:33:34+00",3.6,3.6,,37.9,-155,11,-5,1021.72,34.7,0
"2019-12-26 03:38:34+00",3.4,3.4,,38.4,-147,2,-5,1021.79,34.6,0
"2019-12-26 03:43:34+00",3.3,3.3,,38.2,-129,53,-1,1021.81,34.5,0
"2019-12-26 03:48:34+00",3.7,3.7,,38.1,-151,56,4,1021.74,34.4,0
"2019-12-26 03:53:34+00",3.7,3.7,,37.3,-150,54,6,1021.64,34.4,0
"2019-12-26 03:58:34+00",3.6,3.6,,36.7,-151,23,1,1021.64,34.4,0
"2019-12-26 04:03:34+00",4.2,5.2,,36.2,-178,-18,1,1021.55,34.4,0
"2019-12-26 04:08:34+00",4.8,4.8,,36,-190,-57,5,1021.46,34.1,0
"2019-12-26 04:13:34+00",4.6,4.6,,35.5,-198,38,6,1021.43,33.8,0
"2019-12-26 04:18:34+00",3.9,3.9,,35.2,-160,41,3,1021.45,33.5,0
"2019-12-26 04:23:34+00",3.3,4.3,,34.9,-131,44,0,1021.38,33.4,0
"2019-12-26 04:28:34+00",4.1,4.1,,35.3,-172,47,0,1021.38,33.3,0
"2019-12-26 04:33:34+00",3.7,3.7,,35.9,-147,59,-1,1021.28,33.3,0
"2019-12-26 04:38:34+00",4.1,4.1,,36.2,-159,80,4,1021.25,33.3,0
"2019-12-26 04:43:34+00",3.9,3.9,,36.5,-148,83,4,1021.23,33.4,0
"2019-12-26 04:48:34+00",4.1,4.1,,36.5,-140,109,5,1021.25,33.5,0
"2019-12-26 04:53:34+00",5.0,5.0,,36.2,-131,166,10,1021.35,33.8,0
"2019-12-26 04:58:34+00",5.6,6.6,,36,-117,209,13,1021.45,33.8,0
"2019-12-26 05:03:34+00",5.7,5.7,,35,-45,239,2,1021.46,33.6,0
"2019-12-26 05:08:34+00",5.7,5.7,,34.2,-93,228,7,1021.44,33.1,0
"2019-12-26 05:13:34+00",7.7,7.7,,35.1,-143,302,19,1021.47,32.5,0
"2019-12-26 05:18:34+00",7.1,7.1,,35.1,-78,297,8,1021.49,32.2,0
"2019-12-26 05:23:34+00",7.2,7.2,,36.2,-52,310,3,1021.57,32,0
"2019-12-26 05:28:34+00",6.5,7.5,,36.2,0,272,8,1021.57,31.8,0
"2019-12-26 05:33:34+00",6.2,6.2,,35.8,-10,262,10,1021.53,31.6,0
"2019-12-26 05:38:34+00",5.4,5.4,,36,-38,224,1,1021.57,31.4,0
"2019-12-26 05:43:34+00",5.1,6.1,,36.4,-55,208,2,1021.63,31.3,0
"2019-12-26 05:48:34+00",4.7,4.7,,36.6,-45,193,2,1021.69,31.3,0
"2019-12-26 05:53:34+00",4.8,4.8,,36.4,-16,198,5,1021.72,31.7,0
"2019-12-26 05:58:34+00",4.9,4.9,,36.1,3,202,1,1021.83,32,0
"2019-12-26 06:03:34+00",4.8,4.8,,36.4,-1,197,2,1021.79,32.5,0
"2019-12-26 06:08:34+00",5.0,5.0,,36.7,-7,211,5,1021.94,32.9,0
"2019-12-26 06:13:34+00",5.6,5.6,,36.9,11,231,2,1022.02,33.2,0
"2019-12-26 06:18:34+00",5.7,5.7,,37.1,19,239,1,1022.04,33.3,0
"2019-12-26 06:23:34+00",5.5,5.5,,36.5,50,229,0,1022.24,33.3,0
"2019-12-26 06:28:34+00",5.6,6.6,,36,76,212,-2,1022.25,33.1,0
"2019-12-26 06:33:34+00",6.1,6.1,,36.1,85,228,-2,1022.3,32.8,0
"2019-12-26 06:38:34+00",5.8,5.8,,36.3,69,224,0,1022.27,32.6,0
"2019-12-26 06:43:34+00",5.5,5.5,,36.3,58,220,-1,1022.35,32.6,0
"2019-12-26 06:48:34+00",6.2,6.2,,36.3,74,238,-1,1022.36,32.5,0
"2019-12-26 06:53:34+00",5.9,5.9,,36.4,85,221,-1,1022.5,32.4,0
"2019-12-26 06:58:34+00",5.3,5.3,,37.7,46,219,3,1022.46,32.5,0
"2019-12-26 07:03:34+00",5.3,5.3,,37.8,38,219,2,1022.68,32.9,0
"2019-12-26 07:08:34+00",5.1,6.1,,37.1,64,190,-1,1022.7,32.8,0
"2019-12-26 07:13:34+00",5.3,5.3,,36.9,45,219,3,1022.75,32.8,0
"2019-12-26 07:18:34+00",5.3,5.3,,36.8,59,212,-2,1022.7,33,0
"2019-12-26 07:23:34+00",6.7,6.7,,36.3,147,246,-3,1022.87,33.1,0
"2019-12-26 07:28:34+00",5.8,5.8,,35.7,140,188,0,1023.03,33,0
"2019-12-26 07:33:34+00",6.1,6.1,,35.2,156,183,-6,1022.97,32.7,0
"2019-12-26 07:38:34+00",6.6,6.6,,34.9,167,200,-3,1022.96,32.4,0
"2019-12-26 07:43:34+00",5.5,6.5,,34.7,147,163,-1,1022.87,32.2,0
"2019-12-26 07:48:34+00",5.0,5.0,,34.5,166,127,-3,1022.79,31.9,0
"2019-12-26 07:53:34+00",5.4,5.4,,34.4,196,127,-2,1022.81,31.6,0
"2019-12-26 07:58:34+00",5.2,5.2,,34.4,202,102,-4,1022.76,31.5,0
"2019-12-26 08:03:34+00",5.2,5.2,,34.9,197,105,-4,1022.77,31.6,0
"2019-12-26 08:08:34+00",4.1,4.1,,35.5,151,82,-2,1022.72,31.6,0
"2019-12-26 08:13:34+00",3.3,4.3,,36.4,112,77,5,1022.81,31.8,0
"2019-12-26 08:18:34+00",2.6,2.6,,37.2,69,64,4,1022.75,32.2,0
"2019-12-26 08:23:34+00",3.5,3.5,,37,84,102,2,1022.81,32.4,0
"2019-12-26 08:28:34+00",3.5,3.5,,37,40,127,-1,1023.03,32.6,0
"2019-12-26 08:33:34+00",3.8,3.8,,36.7,42,143,-2,1023.06,32.4,0
"2019-12-26 08:38:34+00",4.0,4.0,,36.3,53,145,-3,1022.93,32.5,0
"2019-12-26 08:43:34+00",4.3,4.3,,35.8,-11,176,12,1023.07,32.3,0
"2019-12-26 08:48:34+00",4.7,4.7,,35.3,-8,197,7,1023.02,32,0
"2019-12-26 08:53:34+00",5.3,5.3,,35.1,16,217,3,1023.08,31.7,0
"2019-12-26 08:58:34+00",6.2,6.2,,35,-12,263,8,1023.05,31.6,0
"2019-12-26 09:03:34+00",6.6,6.6,,34.7,-8,282,14,1023.24,31.4,0
"2019-12-26 09:08:34+00",6.5,7.5,,34.4,-21,279,13,1023.3,31.1,0
"2019-12-26 09:13:34+00",6.5,6.5,,34,-18,275,16,1023.23,30.9,0
"2019-12-26 09:18:34+00",6.6,6.6,,33.6,-8,281,14,1023.17,30.8,0
"2019-12-26 09:23:34+00",6.3,6.3,,33.5,-13,266,12,1023.2,30.6,0
"2019-12-26 09:28:34+00",5.7,5.7,,33.7,2,234,6,1023.22,30.4,0
"2019-12-26 09:33:34+00",3.9,3.9,,33.9,14,157,6,1023.15,30.2,0
"2019-12-26 09:38:34+00",1.8,1.8,,34.1,49,38,4,1022.95,30.4,0
"2019-12-26 09:43:34+00",0.0,0.0,,34.1,9,2,1,1022.93,30.6,0
"2019-12-26 09:48:34+00",1.5,1.5,,34.1,31,37,3,1023.01,30.8,0
"2019-12-26 09:53:34+00",1.9,2.9,,34.1,63,33,2,1023,31.3,0
"2019-12-26 09:58:34+00",2.2,2.2,,34.4,-13,82,3,1023.11,31.4,0
"2019-12-26 10:03:34+00",3.4,3.4,,34.7,-73,119,8,1023.24,31.5,0
"2019-12-26 10:08:34+00",6.0,7.0,,34.6,-179,193,20,1023.41,31.6,0
"2019-12-26 10:13:34+00",5.0,6.0,,35,-112,179,11,1023.37,31.7,0
"2019-12-26 10:18:34+00",5.1,6.1,,34.9,-131,175,12,1023.47,31.8,0
"2019-12-26 10:23:34+00",4.0,4.0,,35.1,-57,154,7,1023.39,31.9,0
"2019-12-26 10:28:34+00",3.3,4.3,,35.2,26,131,0,1023.31,31.9,0
"2019-12-26 10:33:34+00",4.8,4.8,,35.2,51,188,0,1023.38,32,0
"2019-12-26 10:38:34+00",5.2,5.2,,35.3,46,213,0,1023.49,31.7,0
"2019-12-26 10:43:34+00",6.2,6.2,,35.4,11,258,2,1023.71,31.5,0
"2019-12-26 10:48:34+00",7.1,7.1,,35.1,-31,305,9,1023.86,31.2,0
"2019-12-26 10:53:34+00",8.3,8.3,,34.8,-85,351,11,1024.06,30.9,0
"2019-12-26 10:58:34+00",7.6,7.6,,34.6,-77,315,11,1023.96,30.8,0
"2019-12-26 11:03:34+00",6.5,7.5,,34.1,-27,275,8,1024.06,30.6,0
"2019-12-26 11:08:34+00",6.1,6.1,,33.8,51,252,2,1024.08,30.5,0
"2019-12-26 11:13:34+00",4.9,4.9,,34.2,108,176,1,1024.11,30.5,0
"2019-12-26 11:18:34+00",5.4,5.4,,34.3,62,208,0,1024.15,30.4,0
"2019-12-26 11:23:34+00",5.6,5.6,,34.1,43,232,7,1024.35,30.3,0
"2019-12-26 11:28:34+00",7.3,8.3,,34.1,135,282,8,1024.43,30.3,0
"2019-12-26 11:33:34+00",8.6,8.6,,34.4,137,335,4,1024.51,30.7,0
"2019-12-26 11:38:34+00",7.4,8.4,,34.5,89,283,5,1024.5,30.9,0
"2019-12-26 11:43:34+00",6.6,6.6,,34.6,96,246,5,1024.51,31,0
"2019-12-26 11:48:34+00",5.9,6.9,,34.7,128,217,5,1024.47,31.1,0
"2019-12-26 11:53:34+00",4.8,4.8,,34.7,126,145,-2,1024.36,31.3,0
"2019-12-26 11:58:34+00",5.9,5.9,,35.1,135,211,4,1024.34,31.8,0
"2019-12-26 12:03:34+00",6.8,7.8,,35.4,171,229,5,1024.5,32.2,0
"2019-12-26 12:08:34+00",5.8,5.8,,35.1,168,160,6,1024.56,32.3,0
"2019-12-26 12:13:34+00",6.9,7.9,,35.3,216,190,9,1024.45,32.2,0
"2019-12-26 12:18:34+00",6.5,7.5,,35.7,190,180,4,1024.42,32.4,0
"2019-12-26 12:23:34+00",7.9,8.9,,36.2,212,232,0,1024.53,32.8,0
"2019-12-26 12:28:34+00",6.5,7.5,,36.1,172,190,2,1024.64,33.2,0
"2019-12-26 12:33:34+00",5.8,5.8,,36,149,171,3,1024.65,33.3,0
"2019-12-26 12:38:34+00",6.7,6.7,,36.2,201,185,8,1024.58,33.5,0
"2019-12-26 12:43:34+00",5.8,6.8,,36.3,199,149,15,1024.63,34,0
"2019-12-26 12:48:34+00",5.1,6.1,,36.4,110,185,4,1024.68,34.6,0
"2019-12-26 12:53:34+00",4.1,5.1,,36.7,94,134,7,1024.73,34.8,0
"2019-12-26 12:58:34+00",3.8,3.8,,36.6,9,154,4,1024.74,35.1,0
"2019-12-26 13:03:34+00",3.1,4.1,,36.5,-32,122,3,1024.72,35.5,0
"2019-12-26 13:08:34+00",3.6,3.6,,36.9,34,140,1,1024.55,36,0
"2019-12-26 13:13:34+00",2.5,2.5,,37.1,-41,86,6,1024.6,36.5,0
"2019-12-26 13:18:34+00",2.2,3.2,,37.3,-53,72,6,1024.79,37.1,0
"2019-12-26 13:23:34+00",2.6,2.6,,37.4,-77,74,9,1024.85,37.7,0
"2019-12-26 13:28:34+00",2.1,2.1,,37.6,-50,60,12,1024.73,38.1,0.3
"2019-12-26 13:33:34+00",2.8,3.8,,37.8,-57,95,8,1024.79,38.7,8.6
"2019-12-26 13:38:34+00",3.6,4.6,,37.8,-77,131,9,1024.97,38.8,1.7
"2019-12-26 13:43:34+00",4.3,4.3,,37.8,-54,171,8,1025.16,39,20.2
"2019-12-26 13:48:34+00",5.3,6.3,,37.9,-88,207,12,1025.37,39.1,0.4
"2019-12-26 13:53:34+00",6.0,7.0,,37.6,-82,249,11,1025.54,38.8,0.3
"2019-12-26 13:58:34+00",5.6,6.6,,37.7,-46,228,3,1025.41,39.1,39.8
"2019-12-26 14:03:34+00",4.7,4.7,,38.2,-96,173,17,1025.53,39.5,45.7
"2019-12-26 14:08:34+00",5.6,6.6,,38.1,-61,224,12,1025.68,39.7,59.9
"2019-12-26 14:13:34+00",4.8,5.8,,38.2,-5,202,6,1025.68,40.1,70.9
"2019-12-26 14:18:34+00",4.4,5.4,,38.9,46,163,-7,1025.53,40.9,65.6
"2019-12-26 14:23:34+00",3.9,4.9,,39.8,57,146,21,1025.52,41.7,76.2
"2019-12-26 14:28:34+00",4.7,5.7,,40.5,79,166,9,1025.64,42.4,79.2
"2019-12-26 14:33:34+00",3.9,4.9,,40.9,117,106,-3,1025.16,42.7,83.1
"2019-12-26 14:38:34+00",3.1,4.1,,41.2,115,35,19,1025.23,43.1,75.7
"2019-12-26 14:43:34+00",4.4,5.4,,41.9,150,107,15,1025.39,43.6,79.6
"2019-12-26 14:48:34+00",4.0,5.0,,42.4,86,130,8,1025.5,44.1,112.8
"2019-12-26 14:53:34+00",4.6,6.6,,42.9,94,142,17,1025.41,44.5,113.7
"2019-12-26 14:58:34+00",5.0,6.0,,43.2,76,190,-5,1025.59,45,101.5
"2019-12-26 15:03:34+00",5.5,6.5,,43.3,117,195,-3,1025.44,45.3,103.8
"2019-12-26 15:08:34+00",4.6,5.6,,43.3,116,138,-4,1025.5,45.4,122.7
"2019-12-26 15:13:34+00",5.0,6.0,,43.6,70,193,2,1025.6,46,127.7
"2019-12-26 15:18:34+00",5.7,6.7,,43.6,139,188,-3,1025.52,46.4,137.1
"2019-12-26 15:23:34+00",7.5,8.5,,43.4,252,202,4,1025.51,46.3,122
"2019-12-26 15:28:34+00",7.0,8.0,,42.7,250,165,12,1025.46,46,142.6
"2019-12-26 15:33:34+00",9.8,11.8,,42.5,337,261,13,1025.47,45.8,144.7
"2019-12-26 15:38:34+00",8.8,9.8,,42.3,278,240,-4,1025.48,45.4,144.6
"2019-12-26 15:43:34+00",9.6,10.6,,42.8,302,313,-31,1025.42,45.5,127.8
"2019-12-26 15:48:34+00",10.8,11.8,,42.8,-1177,2979,-1481,1025.18,45.6,132.8
"2019-12-26 15:53:34+00",11.1,12.1,,42.8,-1555,3646,-1828,1025.17,45.4,133.1
"2019-12-26 15:58:34+00",11.4,12.4,,43.1,-1268,3141,-1545,1025.1,45.5,132.5
"2019-12-26 16:03:34+00",11.6,13.6,,43.3,-1491,3479,-1756,1025.01,45.6,142.6
"2019-12-26 16:08:34+00",11.3,13.3,,43.4,-1737,3940,-1983,1024.96,45.7,147.2
"2019-12-26 16:13:34+00",10.3,11.3,,43.9,-1681,3819,-1902,1024.86,46.2,147.6
"2019-12-26 16:18:34+00",12.3,13.3,,44.1,-1952,4359,-2219,1024.83,46.4,153.5
"2019-12-26 16:28:34+00",14.1,15.1,,43.5,-1974,4414,-2211,1024.95,46,152.3
"2019-12-26 16:33:34+00",12.8,15.8,,43.6,-1744,3910,-1953,1024.92,46,113.8
"2019-12-26 16:38:34+00",11.9,13.9,,43.9,-1402,3437,-1657,1024.81,46.1,143.6
"2019-12-26 16:48:34+00",12.4,14.4,,44.1,-1744,4048,-2003,1024.79,45.9,79.1
"2019-12-26 17:03:34+00",12.0,14.0,,44.9,-926,2688,-1252,1024.78,46.6,89.6
"2019-12-26 17:13:34+00",13.2,14.2,,45.5,-1498,3788,-1868,1024.83,47.1,129.4
"2019-12-26 17:18:34+00",11.7,14.7,,45.7,-1604,3716,-1880,1024.94,47.5,76.4
"2019-12-26 17:23:34+00",13.0,14.0,,45.7,-1357,3395,-1677,1024.79,47.6,136.9
"2019-12-26 17:28:34+00",11.6,13.6,,46,-589,2038,-940,1024.87,47.9,87.3
"2019-12-26 17:33:34+00",13.2,14.2,,45.8,-1836,4356,-2185,1024.89,47.8,69
"2019-12-26 17:38:34+00",11.5,13.5,,46,-1052,2784,-1392,1024.59,47.8,86
"2019-12-26 17:43:34+00",10.3,12.3,,46.1,-769,2226,-1084,1024.44,47.9,84.4
"2019-12-26 17:48:34+00",10.1,12.1,,46.3,-262,1358,-587,1024.32,48.3,81.4
"2019-12-26 17:53:34+00",10.6,11.6,,46,-966,2487,-1195,1024.44,48.1,86.3
"2019-12-26 17:58:34+00",11.5,13.5,,45.6,-1681,3949,-1975,1024.5,47.8,104.1
"2019-12-26 18:03:34+00",10.6,12.6,,45.6,-1300,3123,-1558,1024.4,47.6,80.3
"2019-12-26 18:08:34+00",11.0,13.0,,45.7,-2056,4477,-2276,1024.42,47.7,46.2
"2019-12-26 18:28:34+00",14.0,15.0,,45.6,-1671,3930,-1924,1024.49,47.2,40.5
"2019-12-26 19:33:34+00",12.8,14.8,,43.9,-1579,3717,-1899,1025.25,44.9,0
"2019-12-26 19:43:34+00",12.3,14.3,,43.9,-1497,3490,-1719,1025.52,44.6,0
"2019-12-26 19:48:34+00",12.1,13.1,,43.9,-1604,3686,-1826,1025.68,44.5,0
"2019-12-26 19:53:34+00",12.5,13.5,,43.8,-1701,3964,-1958,1025.76,44.4,0
"2019-12-26 19:58:34+00",11.6,13.6,,43.8,-1459,3441,-1683,1025.79,44.3,0
"2019-12-26 20:03:34+00",12.9,14.9,,43.8,-1720,3888,-1908,1026.05,44.2,0
"2019-12-26 20:08:34+00",12.9,14.9,,43.7,-2011,4419,-2200,1026.14,44,0
"2019-12-26 20:13:34+00",12.9,14.9,,43.6,-1887,4239,-2099,1026.07,43.8,0
"2019-12-26 20:18:34+00",11.9,13.9,,43.6,-1687,3801,-1860,1026.15,43.8,0
"2019-12-26 20:23:34+00",12.0,13.0,,43.6,-1730,3889,-1950,1026.27,43.8,0
"2019-12-26 20:28:34+00",13.1,14.1,,43.5,-1627,3778,-1835,1026.46,43.6,0
"2019-12-26 20:33:34+00",10.9,13.9,,43.3,-1407,3275,-1602,1026.49,43.5,0
"2019-12-26 20:38:34+00",11.6,13.6,,43.3,-1153,2848,-1350,1026.58,43.4,0
"2019-12-26 20:43:34+00",12.0,16.0,,43.2,-1258,3054,-1461,1026.55,43.3,0
"2019-12-26 20:48:34+00",13.1,16.1,,43.2,-1477,3551,-1737,1026.71,43.2,0
"2019-12-26 20:53:34+00",13.5,16.5,,43.2,-1677,3919,-1927,1026.75,43.2,0
"2019-12-26 20:58:34+00",13.8,15.8,,43.1,-1573,3771,-1829,1026.75,43.1,0
"2019-12-26 21:03:34+00",13.3,15.3,,43,-1621,3827,-1877,1026.72,43,0
"2019-12-26 21:08:34+00",11.8,14.8,,42.9,-1078,2744,-1305,1026.81,42.9,0
"2019-12-26 21:13:34+00",10.8,13.8,,42.8,-810,2208,-1005,1026.82,42.8,0
"2019-12-26 21:18:34+00",12.3,14.3,,42.7,-986,2632,-1205,1026.92,42.6,0
"2019-12-26 21:23:34+00",10.4,13.4,,42.5,-427,1512,-626,1027.04,42.4,0
"2019-12-26 21:28:34+00",12.3,13.3,,42.5,-706,2165,-956,1027.07,42.3,0
"2019-12-26 21:33:34+00",11.6,12.6,,42.5,-585,1921,-834,1027.13,42.2,0
"2019-12-26 21:38:34+00",11.1,13.1,,42.3,-528,1738,-734,1027.26,42.1,0
"2019-12-26 21:43:34+00",11.3,13.3,,42.1,-775,2220,-985,1027.28,41.8,0
"2019-12-26 21:48:34+00",10.5,12.5,,42,-555,1788,-776,1027.25,41.6,0
"2019-12-26 21:53:34+00",11.6,13.6,,42,-802,2295,-1053,1027.12,41.5,0
"2019-12-26 21:58:34+00",12.3,14.3,,41.9,-1045,2758,-1305,1027.17,41.4,0
"2019-12-26 22:03:34+00",11.0,13.0,,41.8,-691,2074,-952,1027.26,41.3,0
"2019-12-26 22:08:34+00",12.4,14.4,,41.8,-738,2245,-1018,1027.26,41.2,0
"2019-12-26 22:13:34+00",11.0,13.0,,41.9,-614,1916,-853,1027.24,41.4,0
"2019-12-26 22:18:34+00",10.5,13.5,,41.9,-629,1938,-868,1027.2,41.5,0
"2019-12-26 22:23:34+00",9.9,11.9,,41.9,-794,2181,-1025,1027.21,41.5,0
"2019-12-26 22:28:34+00",9.8,10.8,,41.9,-635,1895,-862,1027.18,41.4,0
"2019-12-26 22:33:34+00",10.1,12.1,,41.9,-468,1617,-709,1027.21,41.3,0
"2019-12-26 22:38:34+00",10.6,12.6,,41.8,-390,1544,-667,1027.18,41.2,0
"2019-12-26 22:43:34+00",10.2,11.2,,41.8,-348,1444,-610,1027.19,41.2,0
"2019-12-26 22:48:34+00",10.1,11.1,,41.7,-412,1559,-686,1027.22,41.1,0
"2019-12-26 22:53:34+00",9.6,11.6,,41.6,-320,1374,-576,1027.29,41.1,0
"2019-12-26 22:58:34+00",9.4,10.4,,41.6,-234,1215,-487,1027.1,41.1,0
"2019-12-26 23:03:34+00",9.6,10.6,,41.6,-264,1305,-538,1027.13,41.1,0
"2019-12-26 23:08:34+00",9.3,11.3,,41.6,-224,1159,-474,1027.07,41.2,0
"2019-12-26 23:13:34+00",9.9,11.9,,41.7,-294,1333,-551,1027.17,41.2,0
"2019-12-26 23:18:34+00",9.6,10.6,,41.7,-347,1415,-610,1027.19,41.2,0
"2019-12-26 23:23:34+00",9.5,11.5,,41.7,-412,1488,-650,1027.11,41.3,0
"2019-12-26 23:28:34+00",9.2,11.2,,41.8,-509,1649,-742,1027.18,41.3,0
"2019-12-26 23:33:34+00",9.9,10.9,,41.8,-531,1705,-764,1027.12,41.3,0
"2019-12-26 23:38:34+00",9.7,10.7,,41.8,-646,1869,-858,1027.13,41.4,0
"2019-12-26 23:43:34+00",8.8,9.8,,41.8,-402,1417,-621,1027.13,41.4,0
"2019-12-26 23:48:34+00",8.1,9.1,,41.6,-197,1000,-389,1027.21,41.4,0
"2019-12-26 23:53:34+00",8.6,9.6,,41.7,-249,1091,-440,1027.19,41.4,0
"2019-12-26 23:58:34+00",10.2,12.2,,41.9,-251,1198,-471,1027.33,41.5,0
